Home   Weather   Brampton   Past weeks

Flag for Canada Past Weather in Brampton, Ontario, Canada — Yesterday and Last 2 Weeks

Now
81 °F

Partly sunny.


Feels Like: 85 °F
Forecast: N/A
Wind: 12 mph from West

Location: Toronto Pearson International Airport

Current Time: Jun 18, 2018 at 5:29:37 pm

Latest Report: Jun 18, 2018 at 5:00 pm


Visibility: 15 mi

Pressure: 29.79 "Hg

Humidity: 74%

Dew Point: 72 °F

Location of BramptonLocation

Past Weather in Brampton — Graph

°F

Brampton Temperature Yesterday

Maximum temperature yesterday: 88 °F (at 5:00 pm)
Minimum temperature yesterday: 63 °F (at 6:00 am)
Average temperature yesterday: 78 °F

High & Low Weather Summary for the Past Weeks

 TemperatureHumidityPressure
High91 °F (Jun 18, 11:00 am)94% (Jun 3, 6:33 pm)30.22 "Hg (Jun 3, 6:33 pm)
Low50 °F (Jun 6, 4:00 am)25% (Jun 11, 1:00 pm)29.62 "Hg (Jun 13, 3:00 pm)
Average66 °F60%29.94 "Hg
* Reported Jun 3 3:00 pm — Jun 18 3:43 pm, Brampton. Weather by CustomWeather, © 2018

Note: Actual official high and low records may vary slightly from our data, if they occured in-between our weather recording intervals... More about our weather records

Advertising

Brampton Weather History for the Previous 24 Hours

Scroll right to see more
 ConditionsComfort  
Time TempWeatherWind HumidityBarometerVisibility
3:43 pm
Mon, Jun 18
84 °FSprinkles. Broken clouds.18 mph58%29.83 "Hg12 mi
3:00 pm86 °FPartly sunny.18 mph55%29.83 "Hg15 mi
2:00 pm84 °FPartly sunny.16 mph58%29.81 "Hg15 mi
1:00 pm86 °FBroken clouds.18 mph62%29.82 "Hg12 mi
12:12 pm82 °FScattered showers. Broken clouds.16 mph84%29.83 "Hg10 mi
12:03 pm79 °FWarm.15 mph70%29.84 "Hg10 mi
11:00 am91 °FBroken clouds.24 mph56%29.84 "Hg15 mi
10:00 am88 °FScattered clouds.21 mph62%29.85 "Hg15 mi
9:00 am84 °FBroken clouds.20 mph66%29.86 "Hg15 mi
8:00 am84 °FBroken clouds.15 mph66%29.86 "Hg15 mi
7:00 am81 °FScattered clouds.12 mph70%29.87 "Hg15 mi
6:00 am77 °FPartly sunny.9 mph74%29.87 "Hg15 mi
5:00 am75 °FPassing clouds.7 mph78%29.88 "Hg15 mi
4:00 am77 °FPartly cloudy.8 mph74%29.88 "Hg15 mi
3:00 am77 °FMostly cloudy.7 mph74%29.90 "Hg15 mi
2:00 am79 °FPassing clouds.12 mph70%29.92 "Hg15 mi
1:00 am79 °FPassing clouds.8 mph65%29.93 "Hg15 mi
12:00 am81 °FPassing clouds.10 mph66%29.93 "Hg15 mi
11:00 pm
Sun, Jun 17
82 °FPassing clouds.13 mph62%29.94 "Hg15 mi
10:00 pm84 °FPassing clouds.12 mph58%29.93 "Hg15 mi
9:00 pm86 °FPartly sunny.12 mph55%29.91 "Hg15 mi
8:00 pm86 °FPartly sunny.10 mph52%29.92 "Hg15 mi
7:00 pm88 °FOvercast.13 mph49%29.93 "Hg15 mi
6:00 pm88 °FPartly sunny.15 mph49%29.94 "Hg15 mi
5:00 pm88 °FBroken clouds.15 mph49%29.96 "Hg15 mi
Weather by CustomWeather, © 2018

See weather overview